Kosmos-1707

operational
NORAD ID: 16326 Int'l Des: 1985-113 Owner: GRU Country: SU
LEOCIRCULARPOLAR

About Kosmos-1707

Description loading...

Live Position

Loading 3D Globe...

Upcoming Passes

Altitude History

Altitude vs Time

uPlot chart will show altitude changes over time

Two-Line Element Set

1 16326U 85113A 26061.04925740 .00057353 00000-0 56059-3 0 9993
2 16326 82.4868 281.9133 0003324 1.8413 358.2858 15.65933093200625
Epoch: Mar 2, 2026 • Age: 43 hours

Current Status

Altitude 370.2 km
Velocity 7.69 km/s
Sub-Earth Point 13.54°N, 159.36°W
Launch Date Dec 12, 1985
Age 40.2 years
Type other

Technical Details

Classification Payload
Mass 1750.00 kg
Dry Mass 1750.00 kg
Total Mass 1750.00 kg
Length 3.20 m
Diameter 1.30 m
Span 13.10 m
Shape Cyl + Ant
Manufacturer YUZH
Bus Type Tselina-D
Phase Status In Orbit
Owner/State GRU/SU

Large Constellations

Loading constellations...